Location: Bannatyne
(13.0833°N, 59.5333°W)
Time: 14:26:12
(UTC+00:00)

Vanguard 2 Rocket - Pass Details

Date: 22 January 2020
Orbit: 554 x 3326 km, 32.9° (Epoch: 04 April)

Event Time Altitude Azimuth Distance (km) Brightness Sun altitude
Rises 05:49:44 0° 218° (SW) 3,204 - -65.1°
Reaches altitude 10° 05:52:43 10° 205° (SSW) 2,043 - -64.4°
Maximum altitude 05:56:26 26° 147° (SSE) 1,128 - -63.5°
Drops below altitude 10° 05:59:45 10° 88° (E) 1,819 - -62.8°
Sets 06:02:14 0° 75° (ENE) 2,772 - -62.2°
